This is the latest recevied weather packets stored in our database for station/object N1HQ. If no packets are shown the sender has not sent any weather packets the latest 10 day(s).
| Time | Temp. | Humidity | Pressure | Rain* | Wind** | Luminosity | Snow |
|---|---|---|---|---|---|---|---|
| 1788135036 | 27.78° C | 90% | 1014.7 hPa | 0 mm | - | - | - |
| 1788134738 | 28.33° C | 87% | 1014.7 hPa | 0 mm | - | - | - |
| 1788134448 | 28.33° C | 85% | 1014.9 hPa | 0 mm | - | - | - |
| 1788134185 | 28.33° C | 84% | 1014.8 hPa | 0 mm | - | - | - |
| 1788133918 | 29.44° C | 88% | 1014.9 hPa | 0 mm | - | - | - |
| 1788133654 | 29.44° C | 87% | 1014.7 hPa | 0 mm | - | - | - |
| 1788133408 | 29.44° C | 88% | 1014.6 hPa | 0 mm | - | - | - |
| 1788133133 | 29.44° C | 87% | 1014.6 hPa | 0 mm | - | - | - |
| 1788132843 | 30° C | 86% | 1014.4 hPa | 0 mm | - | - | - |
| 1788132596 | 29.44° C | 87% | 1014.4 hPa | 0 mm | - | - | - |
| 1788132328 | 29.44° C | 87% | 1014.2 hPa | 0 mm | - | - | - |
| 1788132043 | 29.44° C | 88% | 1014.2 hPa | 0 mm | - | - | - |
| 1788131783 | 29.44° C | 88% | 1014.3 hPa | 0 mm | - | - | - |
| 1788131493 | 29.44° C | 88% | 1014.3 hPa | 0 mm | - | - | - |
| 1788131198 | 29.44° C | 87% | 1014.3 hPa | 0 mm | - | - | - |
| 1788130948 | 30° C | 85% | 1014.4 hPa | 0 mm | - | - | - |
| 1788130688 | 30° C | 83% | 1014.4 hPa | 0 mm | - | - | - |
| 1788130388 | 30° C | 83% | 1014.3 hPa | 0 mm | - | - | - |
| 1788130096 | 30° C | 81% | 1014.4 hPa | 0 mm | - | - | - |
| 1788129856 | 30° C | 82% | 1014.3 hPa | 0 mm | - | - | - |
| 1788129616 | 30° C | 82% | 1014.3 hPa | 0 mm | - | - | - |
| 1788129363 | 30.56° C | 81% | 1014.2 hPa | 0 mm | - | - | - |
| 1788129088 | 31.11° C | 83% | 1014 hPa | 0 mm | - | - | - |
| 1788128818 | 30.56° C | 85% | 1013.9 hPa | 0 mm | - | - | - |
| 1788128553 | 30.56° C | 84% | 1013.9 hPa | 0 mm | - | - | - |
* Rain latest hour (hover to see other rain measurements)
** Current wind speed in m/s (hover to see current wind gust speed)